Weather History for KGJT - June, 2014

Change the Weather History Date:

Sunday, June 22, 2014

  Actual Average Record
Temperature  
Mean Temperature 76 °F 74 °F  
Max Temperature 90 °F 90 °F 101 °F (1971)
Min Temperature 62 °F 59 °F 42 °F (1964)
Degree Days  
Heating Degree Days 0 0  
Month to date heating degree days 19 20  
Since 1 June heating degree days 19 20  
Since 1 July heating degree days 6269 5609  
Cooling Degree Days 11 10  
Month to date cooling degree days 115 145  
Year to date cooling degree days 174 196  
Since 1 June cooling degree days 115 145  
Growing Degree Days 26 (Base 50)    
Moisture  
Dew Point 26 °F    
Average Humidity 17    
Maximum Humidity 26    
Minimum Humidity 8    
Precipitation  
Precipitation 0.00 in 0.01 in 0.19 in (1972)
Month to date precipitation 0.13 0.35  
Year to date precipitation 3.91 4.18  
Snow  
Snow 0.00 in 0.00 in 0.00 in (2013)
Month to date snowfall 0.0 0.0  
Since 1 June snowfall 0.0 0.0  
Since 1 July snowfall 25.7 19.1  
Snow Depth 0.00 in    
Sea Level Pressure  
Sea Level Pressure 29.74 in    
Wind  
Wind Speed 7 mph (SSE)    
Max Wind Speed 18 mph    
Max Gust Speed 24 mph    
Visibility 10 miles    
Events      
T = Trace of Precipitation, MM = Missing Value Source: NWS Daily Summary

Daily Weather History Graph

Daily Weather History Graph

Search for Another Location

Airport or City:

Trip Planner

Search our weather history database for the weather conditions in past years. The results will help you decide how hot, cold, wet, or windy it might be!

Date:

Astronomy

Jun. 22, 2014 Rise Set
Actual Time 5:48 AM MDT 8:43 PM MDT
Civil Twilight 5:16 AM MDT 9:16 PM MDT
Nautical Twilight 4:35 AM MDT 9:56 PM MDT
Astronomical Twilight 3:48 AM MDT 10:43 PM MDT
Moon 2:37 AM MDT (6/22) 4:29 PM MDT (6/22)
Length of Visible Light 15h 59m
Length of Day
14h 55m
Waning Crescent, 20% of the Moon is Illuminated
Jun 22
Waning Crescent
Jun 27
New
Jul 5
First Quarter
Jul 12
Full
Jul 18
Last Quarter

Hourly Weather History & Observations

Time (MDT) Temp. Dew Point Humidity Pressure Visibility Wind Dir Wind Speed Gust Speed Precip Events Conditions
12:53 AM 72.0 °F 23.0 °F 16% 29.70 in 10.0 mi SE 5.8 mph - N/A   Clear
1:53 AM 68.0 °F 28.0 °F 22% 29.72 in 10.0 mi NE 9.2 mph - N/A   Clear
2:53 AM 70.0 °F 25.0 °F 18% 29.71 in 10.0 mi ESE 10.4 mph - N/A   Clear
3:53 AM 66.9 °F 28.0 °F 23% 29.73 in 10.0 mi ESE 3.5 mph - N/A   Clear
4:53 AM 64.0 °F 26.1 °F 24% 29.73 in 10.0 mi SE 6.9 mph - N/A   Clear
5:53 AM 64.9 °F 26.1 °F 23% 29.76 in 10.0 mi ESE 9.2 mph - N/A   Clear
6:53 AM 64.0 °F 28.0 °F 26% 29.79 in 10.0 mi ESE 9.2 mph - N/A   Clear
7:53 AM 68.0 °F 30.0 °F 24% 29.80 in 10.0 mi SE 8.1 mph - N/A   Clear
8:53 AM 69.1 °F 32.0 °F 25% 29.84 in 10.0 mi South 6.9 mph - N/A   Clear
9:53 AM 75.0 °F 30.9 °F 20% 29.81 in 10.0 mi ESE 10.4 mph - N/A   Clear
10:53 AM 79.0 °F 33.1 °F 19% 29.78 in 10.0 mi South 9.2 mph - N/A   Clear
11:53 AM 82.9 °F 27.0 °F 13% 29.77 in 10.0 mi Variable 3.5 mph - N/A   Clear
12:53 PM 86.0 °F 24.1 °F 10% 29.74 in 10.0 mi NW 6.9 mph - N/A   Clear
1:53 PM 88.0 °F 23.0 °F 9% 29.72 in 10.0 mi South 8.1 mph - N/A   Clear
2:53 PM 88.0 °F 24.1 °F 10% 29.70 in 10.0 mi Variable 5.8 mph - N/A   Clear
3:53 PM 87.1 °F 24.1 °F 10% 29.69 in 10.0 mi South 16.1 mph 21.9 mph N/A   Clear
4:53 PM 89.1 °F 21.0 °F 8% 29.68 in 10.0 mi Variable 3.5 mph - N/A   Clear
5:53 PM 89.1 °F 21.0 °F 8% 29.66 in 10.0 mi SSW 6.9 mph - N/A   Clear
6:53 PM 86.0 °F 26.1 °F 11% 29.68 in 10.0 mi West 6.9 mph - N/A   Scattered Clouds
7:53 PM 86.0 °F 21.9 °F 10% 29.68 in 10.0 mi West 4.6 mph - N/A   Scattered Clouds
8:53 PM 80.1 °F 26.1 °F 14% 29.69 in 10.0 mi NNW 5.8 mph - N/A   Clear
9:53 PM 75.0 °F 23.0 °F 14% 29.70 in 10.0 mi NNE 9.2 mph - N/A   Clear
10:53 PM 73.0 °F 25.0 °F 17% 29.73 in 10.0 mi Variable 6.9 mph - N/A   Clear
11:53 PM 73.4 °F 28.4 °F 19% 29.94 in 10.0 mi West 4.6 mph - N/A   Clear